Temperature
19 19 19 19 19 19 19 19 19 18 18 18 18 18 18 18 18 18 18 18 18 18 18 18 18 18 18 18 18 18 18 18 18 17 17 17 17 17 17 17 17 17 17
19 19 19 19 19 19 19 19 19 18 18 18 18 18 18 18 18 18 18 18 18 18 18 18 18 18 18 18 18 18 18 17 17 17 17 17 17 17 17 17 17 17 17
19 19 19 19 19 19 19 19 19 19 18 18 18 18 18 18 18 18 18 18 18 18 18 18 18 18 18 18 18 18 17 17 17 17 17 17 17 17 17 17 17 17 17
20 19 19 19 19 19 19 19 19 18 18 18 18 18 18 18 18 18 18 18 18 18 18 18 18 18 18 18 18 17 17 17 17 17 17 17 17 17 17 17 17 17 17
20 20 19 19 19 19 19 19 19 18 18 18 18 18 18 18 18 18 18 18 18 18 18 18 18 18 18 17 17 17 17 17 17 17 17 17 17 17 17 17 17 17 17
20 20 19 19 19 19 19 19 18 18 18 18 18 18 18 18 18 18 18 18 18 18 18 18 18 18 18 17 17 17 17 17 17 17 17 17 17 17 17 17 17 17 17
20 20 19 19 19 19 19 19 19 18 18 18 18 18 18 18 18 18 18 18 18 18 18 18 18 18 17 17 17 17 17 17 17 17 17 17 17 17 17 17 17 17 17
20 20 20 19 19 19 19 19 19 18 18 18 18 18 18 18 18 18 18 18 18 18 18 18 18 18 17 17 17 17 17 17 17 17 17 17 17 17 17 17 17 17 17
20 20 20 19 19 19 19 19 18 18 18 18 18 18 18 18 18 18 18 18 18 18 18 18 18 18 17 17 17 17 17 17 17 17 17 17 17 17 17 17 17 17 17
20 20 20 19 19 19 19 19 18 18 18 18 18 18 18 18 18 18 18 18 18 18 18 18 18 18 17 17 17 17 17 17 17 17 17 17 17 17 17 17 17 17 17
20 20 19 19 19 19 19 19 18 18 18 18 18 18 18 18 18 18 18 18 18 18 18 18 18 18 17 17 17 17 17 17 17 17 17 17 17 17 17 17 17 17 17
20 19 19 19 19 19 19 19 18 18 18 18 18 18 18 18 18 18 18 18 18 18 18 18 18 18 17 17 17 17 17 17 18 18 18 17 17 17 17 17 17 17 17
20 19 19 19 19 19 19 19 18 18 18 18 18 18 18 18 18 18 18 18 18 18 18 18 18 18 17 17 17 17 17 18 17 18 18 17 17 17 17 17 17 17 17
20 20 19 19 19 19 19 19 18 18 18 18 18 18 18 18 18 18 18 18 18 18 18 18 18 18 17 18 18 17 17 18 17 17 17 17 17 17 17 17 17 17 17
20 20 19 19 19 19 19 19 18 18 18 18 18 18 18 18 18 18 18 18 18 18 18 18 18 18 18 17 17 17 17 17 17 17 17 17 17 17 17 17 17 17 17
20 20 20 19 19 19 19 19 18 18 18 18 18 18 18 18 18 18 18 18 18 18 18 18 18 18 18 17 17 17 17 17 17 17 17 17 17 17 17 17 17 17 17
20 20 20 19 19 19 19 19 18 18 18 18 18 18 17 18 18 18 18 18 18 18 17 17 18 17 17 17 17 17 17 17 17 17 17 17 17 17 17 17 17 17 17
20 20 20 19 19 19 19 19 18 18 18 18 18 18 18 17 18 18 18 18 17 17 17 17 18 17 17 17 17 17 17 17 17 17 17 17 17 17 17 17 17 17 17
21 20 20 20 19 19 19 19 18 18 18 18 18 18 18 17 18 18 18 18 17 17 17 17 17 17 17 17 17 17 17 17 17 17 17 17 17 17 17 17 17 17 17
21 20 20 20 19 19 19 18 18 18 18 18 18 18 17 17 18 18 17 17 17 17 17 18 17 17 17 17 17 17 17 17 17 17 17 17 17 17 17 17 17 17 17
21 20 20 20 19 19 19 19 18 18 18 18 18 17 17 17 17 17 17 17 17 17 17 17 17 17 17 17 17 17 17 17 17 17 17 17 17 17 17 17 17 17 17
21 21 20 20 20 19 19 19 18 18 18 18 18 18 17 17 18 18 18 17 17 17 17 17 17 17 17 17 17 17 17 17 17 17 17 17 17 17 17 17 17 17 17
21 21 21 20 20 19 19 19 18 18 18 18 18 18 18 18 18 18 18 18 18 17 17 17 17 17 17 17 17 17 17 17 17 17 17 17 17 17 17 17 16 16 16
21 21 21 20 20 20 19 19 19 19 18 18 18 18 18 18 18 18 18 17 17 17 17 17 17 17 17 17 17 17 17 17 17 16 17 17 17 16 16 16 16 16 16
22 21 21 21 20 20 19 19 19 19 18 18 18 18 18 18 18 18 17 17 17 17 17 17 17 17 17 17 17 17 17 17 17 17 16 16 16 16 16 16 16 16 16
22 22 21 21 20 20 20 19 19 19 19 18 18 18 18 18 18 17 17 17 17 17 17 17 17 17 17 17 17 17 17 17 17 17 16 16 16 16 16 16 16 16 16
Wind_Speed
3 7 13 14 15 15 15 15 15 16 16 17 17 17 17 17 18 18 18 18 18 17 18 18 18 18 19 19 19 19 19 19 19 19 19 19 19 19 19 18 18 16 18
7 10 13 14 14 14 14 15 15 15 15 16 16 16 16 17 17 17 17 17 17 17 17 17 17 17 18 17 17 18 18 18 17 17 18 17 17 17 17 18 17 15 17
9 11 13 14 14 14 14 14 14 15 15 15 15 15 15 16 16 16 16 16 16 16 16 16 15 16 16 16 16 16 16 16 16 16 16 14 15 16 17 17 17 17 16
11 12 13 14 14 14 14 14 14 14 14 14 14 14 14 15 15 15 15 15 15 15 15 14 14 14 15 14 14 14 14 15 15 15 13 12 13 15 16 17 16 16 15
10 12 14 15 14 14 13 13 13 13 13 13 14 14 14 14 14 14 14 14 14 14 14 13 13 13 13 13 12 12 12 13 13 13 12 11 12 15 16 16 16 15 15
9 12 15 15 14 14 13 13 12 13 13 13 13 13 13 14 14 14 13 13 13 13 12 12 12 12 12 11 11 10 11 11 12 11 11 11 12 14 15 15 15 15 14
9 11 14 15 14 13 13 12 12 12 12 13 13 13 13 13 13 13 13 12 12 11 11 11 10 10 10 10 9 9 9 10 11 10 10 11 12 14 14 14 14 14 13
11 11 13 15 14 13 12 12 12 12 12 12 12 12 12 12 12 12 12 11 11 10 10 9 9 9 8 8 8 8 9 10 11 10 10 11 13 14 14 14 13 13 13
12 10 10 12 13 13 12 12 12 11 11 11 11 11 11 11 11 11 10 10 10 9 8 8 7 7 7 6 6 7 9 10 10 9 10 11 13 14 13 13 13 13 13
8 8 8 10 10 10 11 11 11 11 10 10 10 10 10 10 10 9 9 9 8 8 7 6 6 6 5 5 5 7 8 9 9 8 9 11 14 13 13 13 13 12 12
9 7 7 7 9 10 9 10 10 10 9 9 9 9 8 7 7 7 7 7 7 6 6 5 4 4 3 3 4 6 6 7 8 8 9 12 14 13 13 13 12 12 11
9 8 7 7 8 9 8 8 8 7 8 7 6 6 6 6 6 6 7 7 6 5 4 3 2 2 1 1 2 4 5 7 8 8 10 13 14 13 13 12 12 12 11
10 9 7 7 8 8 6 7 5 5 6 6 7 7 6 5 5 5 4 4 4 3 2 2 2 2 2 2 2 3 6 7 7 8 11 13 13 13 13 13 12 12 11
8 8 7 7 6 7 7 6 5 4 4 4 7 8 7 4 3 4 3 4 3 3 3 3 3 4 4 4 4 4 6 7 9 9 11 14 14 13 13 13 13 12 11
8 7 7 7 6 6 5 4 5 4 4 5 6 8 8 5 3 3 3 4 4 4 4 4 4 4 2 2 4 6 5 7 9 10 11 14 14 14 13 13 13 12 12
9 8 6 6 6 6 4 3 4 5 5 5 5 6 7 6 5 3 3 3 3 4 5 5 4 3 2 2 3 5 6 7 9 9 10 12 14 14 14 13 13 13 12
9 8 7 7 6 5 4 4 5 5 6 5 5 6 6 6 5 4 2 1 3 3 4 3 2 1 1 1 2 3 4 5 8 9 10 10 11 12 13 13 13 13 13
9 8 7 7 6 5 4 3 3 5 5 4 5 5 4 5 5 4 2 1 3 2 2 1 1 1 0 1 1 1 2 3 6 8 9 10 11 10 12 13 14 14 14
9 8 6 6 6 5 4 3 3 4 4 4 5 4 5 5 5 4 2 2 2 1 1 1 1 2 1 1 1 1 2 2 3 6 7 9 11 11 11 12 14 14 14
7 7 6 6 5 5 3 2 2 2 1 2 3 4 4 4 4 4 2 2 1 1 0 1 1 1 2 2 1 1 1 2 2 3 5 7 9 10 10 11 11 12 13
7 7 6 5 4 4 3 2 2 1 1 1 2 3 4 4 3 3 1 1 1 1 2 2 1 1 1 1 2 1 2 1 1 2 2 3 5 8 9 10 10 9 8
8 7 6 6 5 4 3 3 2 2 1 1 1 2 3 4 3 3 2 2 2 1 1 1 2 1 1 1 2 1 1 3 2 1 1 2 3 4 5 7 8 9 8
8 8 7 6 5 5 4 2 2 2 1 1 0 1 2 3 3 2 2 2 2 2 2 2 3 3 2 2 2 3 2 3 1 2 1 1 1 1 1 3 5 7 7
8 7 6 6 5 5 4 4 4 3 2 2 1 1 1 2 2 3 2 2 2 2 2 3 2 2 3 2 1 2 3 4 3 1 2 1 1 1 1 1 2 4 5
9 8 7 6 5 5 4 4 4 3 2 1 1 1 0 1 1 2 1 2 2 2 2 2 1 2 2 3 2 1 1 1 2 3 1 1 1 0 1 1 2 2 4
8 7 7 7 5 5 5 5 5 4 3 2 1 1 0 1 1 1 0 0 1 1 2 2 2 2 2 2 2 2 2 2 3 3 3 2 1 1 1 1 1 3 4
Wind_Direction
114 113 106 102 99 97 93 91 91 90 89 89 89 91 94 96 97 98 99 100 100 101 102 103 104 106 109 112 114 115 115 115 115 117 118 119 119 119 120 118 115 113 114
140 121 110 106 102 99 97 95 94 93 92 92 92 93 96 99 101 101 101 101 101 101 102 104 107 109 111 112 114 116 116 117 118 117 116 118 120 120 121 119 118 120 119
126 120 113 109 106 103 100 98 96 96 96 96 96 97 98 100 103 105 105 104 103 103 103 106 108 110 111 112 114 117 117 115 116 116 114 114 118 121 121 123 121 121 120
128 123 117 113 109 105 103 101 100 99 99 100 100 100 100 102 105 107 107 106 106 106 107 108 110 111 112 114 116 117 117 117 117 117 115 118 121 122 122 123 123 124 123
122 123 121 116 113 109 106 105 104 103 103 104 103 103 103 103 106 109 109 110 109 109 110 110 110 111 112 112 114 114 116 117 119 118 117 118 122 125 125 125 125 126 126
122 125 124 120 118 115 112 110 108 107 107 108 108 107 107 107 109 110 110 112 112 112 112 112 111 114 114 113 113 113 119 121 121 121 121 125 129 129 128 128 128 129 128
129 130 129 126 124 122 118 115 113 112 112 112 112 110 110 110 111 113 113 113 115 114 114 114 113 116 115 112 110 108 116 120 124 123 127 130 134 133 132 130 130 131 132
137 137 135 133 130 127 124 121 118 118 117 116 115 115 113 113 114 115 117 117 118 118 117 116 115 115 114 111 107 106 113 120 126 127 131 136 139 138 137 136 137 138 137
140 140 141 140 137 134 130 128 125 123 124 122 121 120 120 120 122 122 122 122 122 124 123 122 120 119 116 115 111 113 120 125 127 132 139 142 144 143 142 141 143 143 142
145 148 149 146 143 140 138 136 134 132 131 132 130 129 129 130 129 129 131 131 131 133 133 132 130 129 124 118 120 123 125 131 134 138 143 151 152 151 150 148 147 148 149
152 158 154 150 154 153 151 146 143 139 139 138 139 138 134 131 134 138 143 145 145 146 147 146 140 140 136 128 134 131 128 137 137 143 152 158 159 158 157 156 155 154 154
160 167 161 159 162 165 155 149 153 152 150 152 156 151 151 154 159 159 161 161 160 162 165 170 184 191 178 145 151 141 139 145 141 148 158 162 164 164 163 163 162 162 162
159 159 159 161 162 159 147 154 162 162 165 172 176 176 171 164 162 162 168 171 175 181 176 213 247 261 247 229 223 177 159 150 154 160 166 167 168 170 169 170 171 172 172
140 149 155 152 152 151 147 158 164 167 170 175 174 173 161 153 160 177 192 192 192 191 187 216 238 257 258 228 196 178 167 157 158 163 172 175 176 177 177 177 179 180 181
133 136 145 143 141 141 142 156 152 166 180 181 172 169 158 152 160 179 196 202 211 208 200 212 230 247 243 194 177 171 170 167 168 173 179 182 183 185 186 185 188 189 189
145 147 144 139 138 133 133 139 150 168 166 162 153 158 158 158 162 169 178 195 206 210 207 205 213 215 209 170 172 171 174 173 177 179 181 186 189 191 194 195 197 199 199
153 153 151 151 145 138 139 138 142 157 151 153 154 150 153 158 161 161 166 189 222 213 199 194 202 200 184 171 165 176 179 175 173 180 185 187 193 199 200 202 204 205 207
153 154 159 155 151 151 149 137 135 145 147 157 159 155 158 160 157 157 163 201 216 191 177 174 169 134 87 140 169 204 193 186 182 186 188 192 197 203 208 210 211 212 213
155 155 158 156 160 162 157 142 136 139 151 169 172 167 170 169 163 157 173 209 202 156 170 194 147 156 174 206 217 219 215 203 192 193 193 198 200 204 209 217 218 218 218
152 153 155 156 164 157 141 126 115 118 144 161 172 179 179 182 175 163 175 211 192 140 181 168 159 170 178 194 223 259 243 228 208 200 206 203 204 204 208 215 218 223 225
150 156 158 153 159 150 142 149 152 181 183 176 191 182 184 185 183 169 169 193 186 179 207 189 154 163 199 146 99 357 332 287 224 224 210 197 201 202 202 208 210 212 220
162 164 161 162 163 162 164 162 160 155 178 195 212 188 200 199 197 186 182 199 203 198 219 202 159 167 225 163 142 122 346 343 339 254 213 195 198 191 196 204 200 200 208
167 170 167 167 164 170 164 136 111 81 38 39 23 244 235 216 209 198 202 197 206 194 214 223 194 181 213 237 175 157 166 223 297 345 348 173 175 181 189 196 195 201 206
174 168 161 161 161 164 155 144 148 154 167 210 204 202 229 212 214 212 213 201 203 203 212 230 203 186 180 216 233 198 185 170 168 282 338 349 125 178 205 183 193 198 199
171 166 161 155 158 160 152 153 147 149 169 168 139 146 281 310 258 237 225 209 206 208 214 225 214 196 185 188 197 200 180 180 165 171 234 303 11 322 197 172 176 171 165
167 164 159 154 159 159 153 153 152 152 151 137 135 163 224 319 323 303 173 194 229 214 220 223 209 204 210 200 198 187 177 182 191 175 197 217 249 310 25 80 130 138 152
Height
1545 1544 1544 1543 1542 1542 1541 1541 1541 1541 1540 1540 1540 1540 1539 1539 1540 1540 1540 1540 1541 1542 1542 1543 1544 1545 1546 1547 1548 1549 1550 1551 1552 1553 1554 1555 1556 1557 1558 1559 1560 1561 1562
1546 1546 1545 1545 1544 1544 1543 1543 1543 1543 1542 1542 1542 1542 1542 1542 1542 1542 1543 1543 1544 1544 1545 1546 1546 1547 1548 1549 1550 1551 1552 1552 1554 1555 1556 1557 1558 1559 1560 1561 1562 1562 1563
1547 1547 1547 1546 1546 1546 1545 1545 1545 1545 1545 1544 1544 1544 1544 1544 1544 1545 1545 1546 1546 1547 1547 1548 1549 1550 1550 1551 1552 1553 1554 1554 1555 1557 1558 1559 1560 1560 1561 1562 1563 1564 1565
1548 1548 1548 1547 1547 1547 1547 1547 1547 1547 1546 1546 1547 1547 1546 1546 1547 1547 1548 1548 1549 1549 1550 1550 1551 1552 1553 1554 1554 1555 1556 1556 1557 1558 1559 1560 1561 1562 1563 1564 1564 1565 1566
1549 1549 1549 1549 1549 1549 1549 1549 1549 1548 1548 1548 1548 1548 1548 1549 1549 1549 1550 1550 1551 1552 1552 1553 1553 1554 1555 1556 1556 1557 1557 1558 1559 1560 1561 1562 1562 1564 1564 1565 1566 1567 1568
1549 1550 1550 1550 1550 1550 1550 1550 1550 1550 1550 1550 1550 1550 1551 1551 1551 1552 1552 1553 1553 1554 1554 1555 1555 1556 1557 1558 1558 1559 1559 1560 1561 1561 1562 1563 1564 1565 1566 1566 1567 1568 1569
1550 1551 1551 1552 1552 1552 1552 1552 1552 1552 1552 1552 1552 1552 1553 1553 1553 1554 1554 1555 1555 1555 1556 1557 1557 1558 1559 1560 1560 1561 1561 1562 1562 1563 1564 1565 1565 1566 1567 1567 1568 1570 1571
1552 1552 1552 1553 1553 1553 1553 1554 1554 1554 1554 1554 1554 1554 1555 1555 1555 1556 1556 1557 1557 1557 1558 1559 1559 1560 1561 1562 1562 1563 1563 1563 1564 1564 1565 1566 1567 1567 1568 1569 1570 1571 1571
1553 1553 1554 1554 1554 1555 1555 1555 1555 1556 1556 1556 1556 1556 1556 1557 1557 1558 1558 1559 1559 1559 1560 1561 1561 1562 1563 1563 1564 1564 1565 1565 1566 1566 1566 1567 1568 1569 1569 1570 1571 1572 1573
1555 1555 1555 1556 1556 1556 1557 1557 1557 1557 1557 1558 1558 1558 1558 1559 1559 1559 1560 1560 1561 1561 1562 1562 1563 1564 1565 1565 1566 1566 1566 1567 1567 1567 1568 1568 1569 1570 1570 1571 1571 1572 1573
1556 1556 1557 1557 1557 1558 1558 1558 1559 1559 1559 1559 1559 1560 1560 1560 1560 1561 1561 1562 1563 1563 1564 1564 1565 1565 1566 1567 1567 1567 1568 1568 1568 1568 1569 1569 1570 1570 1571 1572 1572 1573 1574
1556 1557 1558 1558 1558 1559 1559 1559 1560 1560 1560 1561 1561 1561 1561 1562 1562 1562 1563 1564 1564 1564 1565 1565 1566 1567 1567 1568 1568 1569 1569 1569 1569 1569 1570 1570 1571 1571 1572 1572 1573 1574 1574
1557 1557 1558 1559 1559 1559 1560 1560 1560 1561 1561 1561 1561 1561 1562 1563 1563 1563 1564 1565 1565 1565 1566 1567 1567 1568 1568 1569 1569 1569 1570 1570 1570 1570 1570 1571 1571 1572 1572 1573 1573 1574 1574
1557 1558 1558 1559 1559 1560 1560 1561 1561 1561 1561 1562 1562 1562 1563 1563 1564 1564 1565 1565 1566 1566 1567 1567 1568 1569 1569 1569 1569 1570 1570 1570 1571 1571 1571 1571 1571 1572 1572 1573 1573 1574 1574
1558 1558 1559 1559 1560 1560 1561 1561 1561 1561 1562 1562 1562 1563 1563 1563 1564 1564 1565 1565 1566 1566 1567 1567 1568 1569 1569 1570 1570 1570 1570 1571 1571 1571 1571 1571 1571 1572 1572 1573 1573 1574 1574
1557 1558 1559 1559 1560 1560 1561 1561 1561 1561 1562 1562 1563 1563 1563 1564 1564 1565 1565 1566 1566 1567 1567 1568 1568 1569 1569 1569 1569 1570 1570 1571 1571 1571 1571 1571 1571 1572 1572 1572 1573 1573 1573
1557 1558 1558 1559 1559 1560 1560 1561 1561 1561 1562 1562 1563 1563 1563 1563 1564 1565 1565 1566 1566 1567 1567 1568 1568 1569 1569 1569 1569 1570 1570 1570 1570 1571 1571 1571 1571 1571 1572 1572 1572 1572 1573
1557 1558 1558 1558 1559 1559 1560 1560 1560 1561 1561 1562 1562 1563 1563 1563 1563 1564 1564 1565 1565 1566 1567 1567 1567 1568 1568 1568 1568 1569 1569 1569 1570 1570 1570 1570 1571 1571 1571 1571 1571 1572 1572
1556 1557 1557 1558 1558 1559 1559 1559 1560 1560 1560 1561 1562 1562 1562 1562 1563 1563 1564 1564 1565 1565 1566 1566 1566 1567 1567 1567 1567 1568 1568 1568 1569 1569 1569 1569 1570 1570 1570 1570 1570 1571 1571
1556 1556 1557 1557 1557 1558 1558 1559 1559 1559 1560 1560 1561 1561 1561 1561 1562 1562 1562 1563 1563 1564 1564 1565 1565 1565 1566 1566 1566 1566 1566 1567 1567 1567 1567 1568 1568 1568 1568 1569 1569 1569 1570
1556 1556 1556 1556 1556 1557 1557 1558 1558 1558 1559 1559 1559 1560 1560 1560 1560 1561 1561 1561 1562 1562 1563 1563 1564 1564 1564 1564 1564 1564 1564 1565 1565 1565 1565 1566 1566 1567 1567 1567 1568 1568 1568
1555 1555 1556 1556 1556 1556 1556 1557 1557 1558 1558 1558 1558 1558 1559 1559 1559 1559 1559 1560 1560 1560 1561 1562 1562 1562 1562 1563 1563 1562 1562 1564 1563 1563 1564 1564 1564 1565 1565 1565 1565 1565 1566
1554 1555 1555 1555 1555 1555 1556 1556 1556 1556 1556 1557 1557 1557 1557 1558 1558 1558 1558 1558 1558 1559 1559 1559 1560 1560 1560 1561 1561 1561 1561 1560 1561 1561 1561 1562 1562 1563 1563 1563 1563 1563 1563
1553 1554 1554 1555 1555 1555 1555 1555 1555 1555 1555 1556 1556 1556 1556 1557 1557 1557 1556 1556 1556 1557 1557 1557 1558 1558 1558 1558 1558 1559 1560 1559 1560 1560 1560 1560 1561 1560 1561 1561 1561 1561 1561
1553 1553 1554 1554 1554 1554 1555 1555 1555 1555 1555 1555 1555 1556 1556 1556 1556 1555 1555 1555 1555 1555 1555 1555 1555 1556 1556 1556 1556 1556 1557 1557 1557 1558 1558 1559 1559 1559 1559 1558 1558 1558 1558
1552 1553 1553 1553 1554 1554 1554 1554 1554 1554 1555 1555 1555 1555 1555 1554 1554 1554 1553 1553 1553 1553 1553 1553 1553 1553 1554 1554 1554 1554 1554 1555 1555 1555 1556 1556 1556 1557 1557 1556 1556 1556 1556